Regional Weather Roundup
Issued by NWS

Home | Current Version | Previous Version | Text Only | Print | Product List | Glossary Off
Versions: 1 2 3 4 5 6 7 8 9 10 11 12 13 14 15 16 17 18 19 20 21 22 23 24 25 26 27 28 29 30 31 32 33 34 35 36 37 38 39 40 41 42 43 44 45 46 47 48 49 50

375
ASUS43 KIND 231509
RWRIN

WEATHER ROUNDUP FOR INDIANA
NATIONAL WEATHER SERVICE INDIANAPOLIS IN
1100 AM EDT TUE AUG 23 2016

NOTE: "FAIR" INDICATES FEW OR NO CLOUDS BELOW 12,000 FEET WITH NO
SIGNIFICANT WEATHER AND/OR OBSTRUCTIONS TO VISIBILITY.

* - STATION DOES NOT REPORT WEATHER SUCH AS PRECIPITATION OR FOG.

+ - STATION NOT QUALITY CONTROLLED BY THE NATIONAL WEATHER SERVICE.
    USE DATA WITH CAUTION...ESPECIALLY DEWPOINT AND RELATIVE
    HUMIDITY OBSERVATIONS.

INZ001>003-010>013-019-020-231600-
NORTHWEST INDIANA

CITY           SKY/WX    TMP DP  RH WIND       PRES   REMARKS
GARY /AIRPORT/ MOSUNNY   75  61  60 S8        30.24S
KNOX *+        SUNNY     72  37  28 S9        30.26S
LA PORTE +     SUNNY     74  64  70 S5        30.27S
MICHIGAN CITY+ SUNNY     73  61  64 MISG      30.26S
MONTICELLO +   SUNNY     73  58  59 SE6       30.27R
RENSSELAER +   SUNNY     73  63  68 S8        30.27R
VALPARAISO     SUNNY     73  61  65 S9        30.26S

$$

LMZ046-743>745-231600-
SOUTHERN LAKE MICHIGAN

STATION/POSITION TIME  TEMP    WIND        PRES    WAVE
                       AIR SEA DIR/SP/G            HT
                 (UTC) (F)     (DEG/KT/KT) (MB)    (FT)
BURNS HARBOR     1401   71     190/ 10/ 14 1024.4R
MICHIGAN CITY    1400   70     150/ 10/ 12   N/A
5NW MICH CITY    1500   72 73  190/ 10/ 12   N/A     1

$$

INZ004-005-014>016-021>024-231600-
NORTH CENTRAL INDIANA

CITY           SKY/WX    TMP DP  RH WIND       PRES   REMARKS
ELKHART        SUNNY     73  59  60 S8        30.27S
GOSHEN         SUNNY     74  59  59 S10       30.28R
LOGANSPORT +   SUNNY     73  61  64 S9        30.29R
PERU/GRISSOM   SUNNY     75  61  60 S10       30.27S
ROCHESTER +    SUNNY     77  63  61 S6        30.29R
SOUTH BEND     SUNNY     73  60  63 SW10      30.27R
WARSAW +       SUNNY     73  61  64 S5        30.28S

$$

INZ006>009-017-018-025>027-231600-
NORTHEAST INDIANA

CITY           SKY/WX    TMP DP  RH WIND       PRES   REMARKS
ANGOLA *+      SUNNY     73  63  68 S6        30.28S
AUBURN +       SUNNY     73  57  56 SW3       30.30S
FORT WAYNE     PTSUNNY   74  58  57 S9        30.30S
HUNTINGTON +   PTSUNNY  N/A N/A N/A S8        30.30R

$$

INZ028-029-035-036-043>045-051>053-231600-
WEST CENTRAL INDIANA

CITY           SKY/WX    TMP DP  RH WIND       PRES   REMARKS
CRAWFORDSVL +  MOSUNNY   72  63  72 S5        30.28S
GREENCASTLE +  SUNNY     73  64  73 SE6       30.29S
LAFAYETTE      SUNNY     74  63  68 VRB6      30.26S
TERRE HAUTE    SUNNY     75  64  68 S7        30.28R

$$

INZ030>032-037>040-046>048-054>057-064-065-231600-
CENTRAL INDIANA

CITY           SKY/WX    TMP DP  RH WIND       PRES   REMARKS
COLUMBUS       MOSUNNY   72  64  78 SE6       30.30R
INDIANAPOLIS   MOSUNNY   76  61  59 S9        30.28S
-EAGLE CREEK   SUNNY     75  59  57 SE7       30.28S
KOKOMO *+      PTSUNNY   73  59  60 S7        30.29S
MARION +       CLOUDY    73  61  65 S5        30.30S
MT COMFORT *+  SUNNY     73  61  64 S6        30.29F
SHELBYVILLE    SUNNY     75  60  59 S8        30.29S
ZIONSVILLE +   MOSUNNY   71  60  67 S7        30.30S

$$

INZ033-034-041-042-049-050-058-059-231600-
EAST CENTRAL INDIANA

CITY           SKY/WX    TMP DP  RH WIND       PRES   REMARKS
MUNCIE         CLOUDY    76  58  53 S7        30.30R

$$

INZ060-061-067>069-081>083-085>088-231600-
SOUTHWEST INDIANA

CITY           SKY/WX    TMP DP  RH WIND       PRES   REMARKS
EVANSVILLE     SUNNY     77  63  61 SE7       30.27S
HUNTINGBURG *+ SUNNY     75  63  64 S8        30.28S
WASHINGTON +   SUNNY     75  64  68 MISG      30.27S

$$

INZ062-063-066-070>080-084-089>092-231600-
SOUTH CENTRAL AND SOUTHEAST INDIANA

CITY           SKY/WX    TMP DP  RH WIND       PRES   REMARKS
BLOOMINGTON    SUNNY     75  60  59 S8        30.29R
MADISON *+     SUNNY     75  59  57 SE5       30.32S

$$





USA.gov is the U.S. government's official web portal to all federal, state and local government web resources and services.